Regional Weather Roundup
Issued by NWS

Home | Current Version | Previous Version | Text Only | Print | Product List | Glossary On
Versions: 1 2 3 4 5 6 7 8 9 10 11 12 13 14 15 16 17 18 19 20 21 22 23 24 25 26 27 28 29 30 31 32 33 34 35 36 37 38 39 40 41 42 43 44 45 46 47 48 49 50
000
ASUS43 KDTX 191710
RWRMI
MICHIGAN HOURLY REGIONAL WEATHER ROUNDUP
NATIONAL WEATHER SERVICE DETROIT/PONTIAC MI
100 PM EDT TUE SEP 19 2017

NOTE: "FAIR" INDICATES FEW OR NO CLOUDS BELOW 12,000 FEET WITH NO
SIGNIFICANT WEATHER AND/OR OBSTRUCTION TO VISIBILITY.

MIZ047>049-052>055-059>063-066>070-074>076-081>083-191800-
SOUTHEAST LOWER MICHIGAN

CITY           SKY/WX    TMP DP  RH WIND       PRES   REMARKS
ADRIAN         CLOUDY    69  66  90 E12       30.00S
ALMA           CLOUDY    67  56  67 E9        30.03S
ANN ARBOR      LGT RAIN  69  67  93 MISG      29.99F FOG
BAD AXE        CLOUDY    67  64  88 NE9       30.05R
CARO           CLOUDY    68  61  79 CALM      30.03S
DETROIT CITY   LGT RAIN  68  67  96 SE3       30.02S FOG
DETROIT        RAIN      69  68  96 E6        30.01F FOG
FLINT          LGT RAIN  66  59  78 E9        30.03S
GROSSE ILE     LGT RAIN  68  67  97 CALM      30.00F
HILLSDALE      CLOUDY    70  63  78 SE7       29.99S
HOWELL         LGT RAIN  64  62  93 NE6       30.01F

CITY           SKY/WX    TMP DP  RH WIND       PRES   REMARKS
JACKSON        CLOUDY    68  64  87 E5        30.00R
LAMBERTVILLE   LGT RAIN  69  67  92 E6        29.98S
LANSING        CLOUDY    64  56  75 NE10      30.02F
LAPEER         CLOUDY    65  61  87 CALM      30.03F
MASON          CLOUDY    68  62  82 NE7       30.00F HAZE
MONROE         LGT RAIN  69  67  93 E6        29.99S
MT. CLEMENS    LGT RAIN  69  69 100 SE7       30.01S FOG
PONTIAC        LGT RAIN  68  64  87 SE3       30.02R
PORT HOPE        N/A     66  63  90 NE13      30.03F
PORT HURON     CLOUDY    70  68  94 CALM      30.02S FOG
TRI CITIES     CLOUDY    70  61  73 NE9       30.04S
MIDLAND        FAIR      69  59  72 E9        30.03F
TROY           CLOUDY    69  64  85 CALM      30.04S
SAGINAW HB     PTSUNNY   68  59  73 E6        30.03S
$$
MIZ043>046-050>051-056>058-064>065-071>073-077>080-191800-
SOUTHWEST LOWER MICHIGAN

CITY           SKY/WX    TMP DP  RH WIND       PRES   REMARKS
BATTLE CREEK   CLOUDY    68  64  87 NE6       30.00R
BENTON HARBOR  LGT RAIN  67  61  81 SE7       29.98S
BIG RAPIDS     CLOUDY    69  55  60 E5        30.02F
COLDWATER      CLOUDY    70  65  83 E6        29.98F
FREMONT        PTSUNNY   71  59  64 E12       30.00F
HOLLAND        CLOUDY    73  60  63 E12       29.99F
GRAND RAPIDS   CLOUDY    67  56  67 E10       30.01S
IONIA          CLOUDY    68  55  62 NE8       30.01S
KALAMAZOO      CLOUDY    69  62  78 N8        29.99S HAZE
LUDINGTON      CLOUDY    66  55  66 E6        30.01F
MARSHALL       CLOUDY    67  66  98 CALM      29.99S
MOUNT PLEASANT CLOUDY    69  56  62 NE8       30.03S
MUSKEGON       CLOUDY    72  54  53 E13       30.00F
SOUTH HAVEN    CLOUDY    72  65  80 NE6       29.98S
$$
MIZ016>042-191800-
NORTHERN LOWER MICHIGAN

CITY           SKY/WX    TMP DP  RH WIND       PRES   REMARKS
ALPENA         PTSUNNY   68  59  73 SE9       30.08S
BEAVER ISLAND  CLOUDY    70  57  63 E10       30.06S
BELLAIRE       CLOUDY    69  53  58 E6        30.04F
CADILLAC       CLOUDY    71  46  40 E8        30.04S
CHARLEVOIX     CLOUDY    70  56  61 E12       30.07F
FRANKFORT      MOSUNNY   72  52  48 E7        30.02F
GAYLORD        CLOUDY    67  53  61 VRB7      30.07S
GRAYLING       CLOUDY    70  52  54 E7        30.06F
HARBOR SPRINGS CLOUDY    70  54  55 E10       30.05F
HOUGHTON LAKE  MOSUNNY   69  50  50 E9        30.06S
MANISTEE       MOSUNNY   70  55  59 E6        30.01F
OSCODA         PTSUNNY   69  58  68 E6        30.06F
PELLSTON       CLOUDY    70  56  61 E9G17     30.06F
ROGERS CITY    CLOUDY    65  58  76 E8        30.10S
TRAVERSE CITY  PTSUNNY   71  53  52 E6        30.02F
$$
MIZ007>008-015-191800-
EASTERN UPPER MICHIGAN

CITY           SKY/WX    TMP DP  RH WIND       PRES   REMARKS
KINROSS        CLOUDY    68  48  48 E14       30.09S
MACKINAC ISLAN CLOUDY    65  58  77 E13G21    30.07F
NEWBERRY       CLOUDY    67  57  71 E9        30.07S
S. S. MARIE    SUNNY     69  49  48 E10G18    30.08F
MUNISING         N/A     72  52  49 SE9       30.03F
$$
MIZ004>006-011>014-085-191800-
CENTRAL UPPER MICHIGAN

CITY           SKY/WX    TMP DP  RH WIND       PRES   REMARKS
MANISTIQUE     SUNNY     67  53  61 SE12      30.06S
ESCANABA       SUNNY     67  57  70 SE10      30.05S
MENOMINEE      PTSUNNY   68  60  75 E9        30.03F
SAWYER-GWINN   SUNNY     68  54  60 S10G17    30.05F
$$
MIZ001>003-009>011-084-191800-
WESTERN UPPER MICHIGAN

CITY           SKY/WX    TMP DP  RH WIND       PRES   REMARKS
IRON MOUNTAIN  PTSUNNY   69  57  65 SE6       30.02F
HOUGHTON       SUNNY     64  51  62 E9        30.02F
COPPER HARBOR    N/A     65  52  62 VRB7G17   30.02F
IRONWOOD       SUNNY     70  56  61 S7        29.98F
$$

ABBREVIATIONS USED IN REMARKS
   TC - TEMPERATURE IN CELSIUS
  WCI - WIND CHILL INDEX
   HX - HEAT INDEX
  VSB - VISIBILITY





USA.gov is the U.S. government's official web portal to all federal, state and local government web resources and services.